Time,TemperatureF,DewpointF,PressureIn,WindDirection,WindDirectionDegrees,WindSpeedMPH,WindSpeedGustMPH,Humidity,HourlyPrecipIn,Conditions,Clouds,dailyrainin,SoftwareType,DateUTC
2013-08-22 00:01:00,69.1,63.0,30.12,SSW,202,0.0,0.0,81,0.00,,---,0.00,VWS V14.01,2013-08-22 04:01:00,
2013-08-22 00:06:00,69.1,63.0,30.12,SW,225,0.0,0.0,81,0.00,,---,0.00,VWS V14.01,2013-08-22 04:06:00,
2013-08-22 00:11:00,69.1,63.0,30.12,SW,225,0.0,0.0,81,0.00,,---,0.00,VWS V14.01,2013-08-22 04:11:00,
2013-08-22 00:16:00,69.6,63.5,30.12,SW,225,3.1,3.6,81,0.00,,---,0.00,VWS V14.01,2013-08-22 04:16:00,
2013-08-22 00:21:00,70.0,63.5,30.12,SW,225,2.7,4.0,80,0.00,,---,0.00,VWS V14.01,2013-08-22 04:21:00,
2013-08-22 00:26:00,70.5,63.7,30.12,South,180,2.7,4.0,79,0.00,,---,0.00,VWS V14.01,2013-08-22 04:26:00,
2013-08-22 00:31:00,70.3,63.5,30.12,South,180,0.0,2.7,79,0.00,,---,0.00,VWS V14.01,2013-08-22 04:31:00,
2013-08-22 00:36:00,70.3,63.5,30.12,SW,225,0.0,0.0,79,0.00,,---,0.00,VWS V14.01,2013-08-22 04:36:00,
2013-08-22 00:41:00,70.3,63.5,30.12,South,180,0.0,3.1,79,0.00,,---,0.00,VWS V14.01,2013-08-22 04:41:00,
2013-08-22 00:46:00,70.2,63.7,30.12,South,180,0.0,0.0,80,0.00,,---,0.00,VWS V14.01,2013-08-22 04:46:00,
2013-08-22 00:51:00,70.2,63.7,30.12,South,180,2.2,2.2,80,0.00,,---,0.00,VWS V14.01,2013-08-22 04:51:00,
2013-08-22 00:56:00,70.2,64.1,30.12,SW,225,0.0,2.2,81,0.00,,---,0.00,VWS V14.01,2013-08-22 04:56:00,
2013-08-22 01:01:00,70.0,63.9,30.12,SSW,202,2.2,2.2,81,0.00,,---,0.00,VWS V14.01,2013-08-22 05:01:00,
2013-08-22 01:06:00,69.8,63.7,30.12,South,180,0.0,0.0,81,0.00,,---,0.00,VWS V14.01,2013-08-22 05:06:00,
2013-08-22 01:11:00,69.6,64.2,30.12,South,180,2.7,2.7,83,0.00,,---,0.00,VWS V14.01,2013-08-22 05:11:00,
2013-08-22 01:16:00,69.6,64.2,30.12,SW,225,3.1,3.1,83,0.00,,---,0.00,VWS V14.01,2013-08-22 05:16:00,
2013-08-22 01:21:00,69.4,64.4,30.12,SW,225,0.0,0.0,84,0.00,,---,0.00,VWS V14.01,2013-08-22 05:21:00,
2013-08-22 01:26:00,69.4,64.4,30.12,South,180,2.2,4.0,84,0.00,,---,0.00,VWS V14.01,2013-08-22 05:26:00,
2013-08-22 01:31:00,69.3,64.6,30.12,SW,225,0.0,0.0,85,0.00,,---,0.00,VWS V14.01,2013-08-22 05:31:00,
2013-08-22 01:36:00,69.3,64.9,30.12,SSW,202,3.6,3.6,86,0.00,,---,0.00,VWS V14.01,2013-08-22 05:36:00,
2013-08-22 01:41:00,69.4,65.1,30.12,South,180,0.0,0.0,86,0.00,,---,0.00,VWS V14.01,2013-08-22 05:41:00,
2013-08-22 01:46:00,69.3,64.9,30.12,SW,225,0.0,0.0,86,0.00,,---,0.00,VWS V14.01,2013-08-22 05:46:00,
2013-08-22 01:51:00,69.1,64.7,30.12,SW,225,0.0,0.0,86,0.00,,---,0.00,VWS V14.01,2013-08-22 05:51:00,
2013-08-22 01:56:00,69.1,64.7,30.12,SW,225,0.0,2.7,86,0.00,,---,0.00,VWS V14.01,2013-08-22 05:56:00,
2013-08-22 02:01:00,68.9,64.9,30.12,SW,225,0.0,2.7,87,0.00,,---,0.00,VWS V14.01,2013-08-22 06:01:00,
2013-08-22 02:06:00,69.1,65.1,30.12,SSW,202,0.0,0.0,87,0.00,,---,0.00,VWS V14.01,2013-08-22 06:06:00,
2013-08-22 02:11:00,69.1,65.1,30.12,SSW,202,0.0,0.0,87,0.00,,---,0.00,VWS V14.01,2013-08-22 06:11:00,
2013-08-22 02:16:00,69.1,65.1,30.12,SW,225,0.0,0.0,87,0.00,,---,0.00,VWS V14.01,2013-08-22 06:16:00,
2013-08-22 02:21:00,68.9,64.9,30.12,South,180,0.0,0.0,87,0.00,,---,0.00,VWS V14.01,2013-08-22 06:21:00,
2013-08-22 02:26:00,68.9,64.9,30.09,SSW,202,0.0,0.0,87,0.00,,---,0.00,VWS V14.01,2013-08-22 06:26:00,
2013-08-22 02:31:00,68.5,64.5,30.09,SSW,202,0.0,0.0,87,0.00,,---,0.00,VWS V14.01,2013-08-22 06:31:00,
2013-08-22 02:36:00,68.5,64.8,30.09,WNW,292,0.0,0.0,88,0.00,,---,0.00,VWS V14.01,2013-08-22 06:36:00,
2013-08-22 02:41:00,68.4,64.7,30.09,SW,225,0.0,0.0,88,0.00,,---,0.00,VWS V14.01,2013-08-22 06:41:00,
2013-08-22 02:46:00,68.2,64.5,30.09,SE,135,0.0,0.0,88,0.00,,---,0.00,VWS V14.01,2013-08-22 06:46:00,
2013-08-22 02:51:00,68.2,64.8,30.09,SW,225,0.0,0.0,89,0.00,,---,0.00,VWS V14.01,2013-08-22 06:51:00,
2013-08-22 02:56:00,68.2,64.8,30.09,SW,225,0.0,0.0,89,0.00,,---,0.00,VWS V14.01,2013-08-22 06:56:00,
2013-08-22 03:01:00,68.2,64.8,30.09,SW,225,0.0,2.7,89,0.00,,---,0.00,VWS V14.01,2013-08-22 07:01:00,
2013-08-22 03:06:00,68.0,64.6,30.09,South,180,0.0,0.0,89,0.00,,---,0.00,VWS V14.01,2013-08-22 07:06:00,
2013-08-22 03:11:00,68.0,64.6,30.09,SW,225,0.0,0.0,89,0.00,,---,0.00,VWS V14.01,2013-08-22 07:11:00,
2013-08-22 03:16:00,68.0,65.0,30.09,SW,225,3.1,3.6,90,0.00,,---,0.00,VWS V14.01,2013-08-22 07:16:00,
2013-08-22 03:21:00,68.2,65.1,30.09,South,180,2.2,2.2,90,0.00,,---,0.00,VWS V14.01,2013-08-22 07:21:00,
2013-08-22 03:26:00,68.2,65.1,30.09,SW,225,2.7,2.7,90,0.00,,---,0.00,VWS V14.01,2013-08-22 07:26:00,
2013-08-22 03:31:00,68.2,65.1,30.09,West,270,0.0,0.0,90,0.00,,---,0.00,VWS V14.01,2013-08-22 07:31:00,
2013-08-22 03:36:00,68.2,65.1,30.09,South,180,2.2,4.0,90,0.00,,---,0.00,VWS V14.01,2013-08-22 07:36:00,
2013-08-22 03:41:00,68.4,65.3,30.09,SW,225,0.0,0.0,90,0.00,,---,0.00,VWS V14.01,2013-08-22 07:41:00,
2013-08-22 03:46:00,68.4,65.3,30.09,South,180,3.1,3.1,90,0.00,,---,0.00,VWS V14.01,2013-08-22 07:46:00,
2013-08-22 03:51:00,68.4,65.3,30.09,South,180,3.1,3.6,90,0.00,,---,0.00,VWS V14.01,2013-08-22 07:51:00,
2013-08-22 03:56:00,68.4,65.3,30.09,ENE,68,3.6,3.6,90,0.00,,---,0.00,VWS V14.01,2013-08-22 07:56:00,
2013-08-22 04:01:00,68.2,65.1,30.09,SW,225,0.0,0.0,90,0.00,,---,0.00,VWS V14.01,2013-08-22 08:01:00,
2013-08-22 04:06:00,68.2,65.1,30.09,South,180,0.0,0.0,90,0.00,,---,0.00,VWS V14.01,2013-08-22 08:06:00,
2013-08-22 04:11:00,68.0,65.0,30.09,SW,225,3.6,4.0,90,0.00,,---,0.00,VWS V14.01,2013-08-22 08:11:00,
2013-08-22 04:16:00,68.2,65.1,30.09,South,180,2.7,2.7,90,0.00,,---,0.00,VWS V14.01,2013-08-22 08:16:00,
2013-08-22 04:21:00,68.0,65.0,30.09,SW,225,0.0,0.0,90,0.00,,---,0.00,VWS V14.01,2013-08-22 08:21:00,
2013-08-22 04:26:00,68.0,65.0,30.09,South,180,4.0,4.0,90,0.00,,---,0.00,VWS V14.01,2013-08-22 08:26:00,
2013-08-22 04:31:00,68.0,65.0,30.09,SW,225,2.7,4.0,90,0.00,,---,0.00,VWS V14.01,2013-08-22 08:31:00,
2013-08-22 04:36:00,68.0,65.0,30.09,South,180,3.1,3.1,90,0.00,,---,0.00,VWS V14.01,2013-08-22 08:36:00,
2013-08-22 04:41:00,68.0,65.0,30.06,South,180,2.7,2.7,90,0.00,,---,0.00,VWS V14.01,2013-08-22 08:41:00,
2013-08-22 04:46:00,67.8,65.1,30.06,SW,225,0.0,0.0,91,0.00,,---,0.00,VWS V14.01,2013-08-22 08:46:00,
2013-08-22 04:51:00,67.6,64.9,30.06,WSW,248,0.0,0.0,91,0.00,,---,0.00,VWS V14.01,2013-08-22 08:51:00,
2013-08-22 04:56:00,67.6,64.9,30.06,SSW,202,2.2,3.1,91,0.00,,---,0.04,VWS V14.01,2013-08-22 08:56:00,
2013-08-22 05:01:00,67.6,64.9,30.06,SW,225,2.2,4.0,91,0.00,,---,0.00,VWS V14.01,2013-08-22 09:01:00,
2013-08-22 05:06:00,67.6,64.9,30.06,SW,225,0.0,0.0,91,0.00,,---,0.00,VWS V14.01,2013-08-22 09:06:00,
2013-08-22 05:11:00,67.5,64.8,30.09,SW,225,0.0,0.0,91,0.00,,---,0.00,VWS V14.01,2013-08-22 09:11:00,
2013-08-22 05:16:00,67.5,64.8,30.09,South,180,2.2,6.3,91,0.00,,---,0.00,VWS V14.01,2013-08-22 09:16:00,
2013-08-22 05:21:00,67.5,64.8,30.09,SW,225,0.0,3.1,91,0.00,,---,0.00,VWS V14.01,2013-08-22 09:21:00,
2013-08-22 05:26:00,67.6,64.9,30.06,South,180,2.2,3.6,91,0.00,,---,0.00,VWS V14.01,2013-08-22 09:26:00,
2013-08-22 05:31:00,67.6,64.9,30.06,South,180,3.1,3.6,91,0.00,,---,0.00,VWS V14.01,2013-08-22 09:31:00,
2013-08-22 05:36:00,67.6,64.9,30.06,SW,225,2.2,4.0,91,0.00,,---,0.00,VWS V14.01,2013-08-22 09:36:00,
2013-08-22 05:41:00,67.5,64.8,30.06,SSW,202,0.0,0.0,91,0.00,,---,0.00,VWS V14.01,2013-08-22 09:41:00,
2013-08-22 05:46:00,67.3,64.6,30.06,SSW,202,0.0,0.0,91,0.00,,---,0.00,VWS V14.01,2013-08-22 09:46:00,
2013-08-22 05:51:00,67.3,64.6,30.06,SW,225,0.0,3.1,91,0.00,,---,0.00,VWS V14.01,2013-08-22 09:51:00,
2013-08-22 05:56:00,67.3,64.6,30.06,SE,135,0.0,2.2,91,0.00,,---,0.00,VWS V14.01,2013-08-22 09:56:00,
2013-08-22 06:01:00,67.3,64.6,30.06,SW,225,0.0,0.0,91,0.00,,---,0.00,VWS V14.01,2013-08-22 10:01:00,
2013-08-22 06:06:00,67.3,64.6,30.06,SW,225,2.7,2.7,91,0.00,,---,0.00,VWS V14.01,2013-08-22 10:06:00,
2013-08-22 06:11:00,67.5,64.8,30.06,SSW,202,0.0,0.0,91,0.00,,---,0.00,VWS V14.01,2013-08-22 10:11:00,
2013-08-22 06:16:00,67.5,64.8,30.06,South,180,2.7,3.6,91,0.00,,---,0.00,VWS V14.01,2013-08-22 10:16:00,
2013-08-22 06:21:00,67.5,64.8,30.06,SSW,202,0.0,0.0,91,0.00,,---,0.00,VWS V14.01,2013-08-22 10:21:00,
2013-08-22 06:26:00,67.5,64.8,30.06,West,270,0.0,0.0,91,0.00,,---,0.00,VWS V14.01,2013-08-22 10:26:00,
2013-08-22 06:31:00,67.3,64.6,30.06,SW,225,0.0,2.7,91,0.00,,---,0.00,VWS V14.01,2013-08-22 10:31:00,
2013-08-22 06:36:00,67.3,64.6,30.06,SW,225,4.9,5.4,91,0.00,,---,0.00,VWS V14.01,2013-08-22 10:36:00,
2013-08-22 06:41:00,67.3,64.6,30.06,SW,225,0.0,3.6,91,0.00,,---,0.04,VWS V14.01,2013-08-22 10:41:00,
2013-08-22 06:46:00,67.3,64.6,30.06,West,270,2.7,4.5,91,0.00,,---,0.00,VWS V14.01,2013-08-22 10:46:00,
2013-08-22 08:27:00,71.1,67.3,30.09,ENE,68,0.0,4.0,88,0.00,,---,0.00,VWS V14.01,2013-08-22 12:27:00,
2013-08-22 08:32:00,71.6,67.5,30.09,SSW,202,3.1,3.1,87,0.00,,---,0.00,VWS V14.01,2013-08-22 12:32:00,
2013-08-22 08:37:00,72.0,67.2,30.09,South,180,3.6,3.6,85,0.00,,---,0.00,VWS V14.01,2013-08-22 12:37:00,
2013-08-22 08:42:00,72.1,66.7,30.09,SSW,202,6.3,6.3,83,0.00,,---,0.00,VWS V14.01,2013-08-22 12:42:00,
2013-08-22 08:47:00,72.5,66.7,30.09,South,180,2.2,3.6,82,0.00,,---,0.00,VWS V14.01,2013-08-22 12:47:00,
2013-08-22 08:52:00,73.0,66.9,30.09,SW,225,3.6,5.4,81,0.00,,---,0.00,VWS V14.01,2013-08-22 12:52:00,
2013-08-22 08:57:00,73.8,67.6,30.09,South,180,7.2,7.2,81,0.00,,---,0.00,VWS V14.01,2013-08-22 12:57:00,
2013-08-22 09:01:00,74.1,67.6,30.09,South,180,3.1,3.1,80,0.00,,---,0.00,VWS V14.01,2013-08-22 13:01:00,
2013-08-22 09:06:00,74.7,67.7,30.09,SE,135,2.2,4.0,79,0.00,,---,0.00,VWS V14.01,2013-08-22 13:06:00,
2013-08-22 09:11:00,74.5,66.8,30.09,South,180,7.6,7.6,77,0.00,,---,0.00,VWS V14.01,2013-08-22 13:11:00,
2013-08-22 09:16:00,74.8,67.2,30.09,South,180,3.1,3.6,77,0.00,,---,0.00,VWS V14.01,2013-08-22 13:16:00,
2013-08-22 09:21:00,75.0,66.9,30.09,SSW,202,7.6,7.6,76,0.00,,---,0.00,VWS V14.01,2013-08-22 13:21:00,
2013-08-22 09:26:00,75.2,67.1,30.09,South,180,3.1,3.6,76,0.00,,---,0.00,VWS V14.01,2013-08-22 13:26:00,
2013-08-22 09:31:00,75.6,67.1,30.09,SW,225,3.1,11.0,75,0.00,,---,0.00,VWS V14.01,2013-08-22 13:31:00,
2013-08-22 09:36:00,75.9,67.0,30.09,SSW,202,5.4,5.4,74,0.00,,---,0.00,VWS V14.01,2013-08-22 13:36:00,
2013-08-22 09:41:00,76.5,67.2,30.09,SE,135,2.7,8.1,73,0.00,,---,0.00,VWS V14.01,2013-08-22 13:41:00,
2013-08-22 09:46:00,76.8,67.1,30.09,NW,315,2.7,2.7,72,0.00,,---,0.00,VWS V14.01,2013-08-22 13:46:00,
2013-08-22 09:51:00,77.2,66.7,30.09,South,180,4.0,4.9,70,0.00,,---,0.00,VWS V14.01,2013-08-22 13:51:00,
2013-08-22 09:56:00,76.6,66.5,30.09,North,0,0.0,3.1,71,0.00,,---,0.00,VWS V14.01,2013-08-22 13:56:00,
2013-08-22 10:01:00,76.5,67.6,30.09,South,180,4.9,4.9,74,0.00,,---,0.00,VWS V14.01,2013-08-22 14:01:00,
2013-08-22 10:06:00,75.9,67.0,30.09,South,180,2.7,2.7,74,0.00,,---,0.00,VWS V14.01,2013-08-22 14:06:00,
2013-08-22 10:11:00,75.6,66.7,30.12,SE,135,5.4,5.4,74,0.00,,---,0.00,VWS V14.01,2013-08-22 14:11:00,
2013-08-22 10:16:00,75.9,67.4,30.12,NW,315,3.1,4.0,75,0.00,,---,0.00,VWS V14.01,2013-08-22 14:16:00,
2013-08-22 10:21:00,75.7,67.3,30.12,NW,315,2.2,5.4,75,0.00,,---,0.00,VWS V14.01,2013-08-22 14:21:00,
2013-08-22 10:26:00,75.6,67.5,30.09,West,270,2.2,3.1,76,0.00,,---,0.00,VWS V14.01,2013-08-22 14:26:00,
2013-08-22 10:31:00,75.0,67.3,30.09,WSW,248,3.1,3.1,77,0.00,,---,0.00,VWS V14.01,2013-08-22 14:31:00,
2013-08-22 10:36:00,74.8,67.5,30.09,WSW,248,0.0,4.9,78,0.00,,---,0.00,VWS V14.01,2013-08-22 14:36:00,
2013-08-22 10:41:00,74.8,67.9,30.09,WNW,292,0.0,0.0,79,0.00,,---,0.00,VWS V14.01,2013-08-22 14:41:00,
2013-08-22 10:46:00,74.8,67.9,30.09,SW,225,5.4,5.8,79,0.00,,---,0.00,VWS V14.01,2013-08-22 14:46:00,
2013-08-22 10:51:00,75.2,68.6,30.09,South,180,3.1,3.1,80,0.00,,---,0.00,VWS V14.01,2013-08-22 14:51:00,
2013-08-22 10:56:00,75.4,68.4,30.09,SW,225,4.5,4.5,79,0.00,,---,0.00,VWS V14.01,2013-08-22 14:56:00,
2013-08-22 11:01:00,75.0,68.4,30.09,SW,225,4.0,4.0,80,0.00,,---,0.00,VWS V14.01,2013-08-22 15:01:00,
2013-08-22 11:06:00,75.0,68.4,30.09,East,90,0.0,0.0,80,0.00,,---,0.00,VWS V14.01,2013-08-22 15:06:00,
2013-08-22 11:11:00,75.2,68.6,30.09,SW,225,3.1,3.1,80,0.00,,---,0.00,VWS V14.01,2013-08-22 15:11:00,
2013-08-22 11:16:00,75.4,68.8,30.09,South,180,4.9,4.9,80,0.00,,---,0.00,VWS V14.01,2013-08-22 15:16:00,
2013-08-22 11:21:00,75.4,68.8,30.09,North,0,0.0,2.2,80,0.00,,---,0.00,VWS V14.01,2013-08-22 15:21:00,
2013-08-22 11:26:00,74.7,68.1,30.09,North,0,0.0,0.0,80,0.00,,---,0.00,VWS V14.01,2013-08-22 15:26:00,
2013-08-22 11:31:00,74.5,68.6,30.09,NW,315,0.0,0.0,82,0.00,,---,0.00,VWS V14.01,2013-08-22 15:31:00,
2013-08-22 11:36:00,74.1,69.0,30.09,SW,225,4.0,4.9,84,0.00,,---,0.00,VWS V14.01,2013-08-22 15:36:00,
2013-08-22 11:41:00,73.8,69.0,30.09,SW,225,0.0,0.0,85,0.00,,---,0.00,VWS V14.01,2013-08-22 15:41:00,
2013-08-22 11:46:00,73.6,69.1,30.09,SW,225,0.0,0.0,86,0.00,,---,0.00,VWS V14.01,2013-08-22 15:46:00,
2013-08-22 11:51:00,73.8,69.3,30.09,SE,135,0.0,0.0,86,0.00,,---,0.00,VWS V14.01,2013-08-22 15:51:00,
2013-08-22 11:56:00,74.1,70.0,30.09,North,0,0.0,3.6,87,0.00,,---,0.00,VWS V14.01,2013-08-22 15:56:00,
2013-08-22 12:01:00,74.7,70.5,30.09,SE,135,0.0,0.0,87,0.00,,---,0.00,VWS V14.01,2013-08-22 16:01:00,
2013-08-22 12:06:00,75.4,70.6,30.09,West,270,2.2,6.3,85,0.00,,---,0.00,VWS V14.01,2013-08-22 16:06:00,
2013-08-22 12:11:00,76.3,70.7,30.09,NE,45,2.7,2.7,83,0.00,,---,0.00,VWS V14.01,2013-08-22 16:11:00,
2013-08-22 12:16:00,76.6,70.0,30.09,SW,225,2.7,2.7,80,0.00,,---,0.00,VWS V14.01,2013-08-22 16:16:00,
2013-08-22 12:21:00,77.2,69.8,30.09,SW,225,4.0,4.0,78,0.00,,---,0.00,VWS V14.01,2013-08-22 16:21:00,
2013-08-22 12:26:00,77.7,69.2,30.09,SE,135,0.0,0.0,75,0.00,,---,0.00,VWS V14.01,2013-08-22 16:26:00,
2013-08-22 12:31:00,77.5,69.0,30.09,West,270,2.7,3.1,75,0.00,,---,0.00,VWS V14.01,2013-08-22 16:31:00,
2013-08-22 12:36:00,78.3,69.7,30.09,NW,315,0.0,7.2,75,0.00,,---,0.00,VWS V14.01,2013-08-22 16:36:00,
2013-08-22 12:41:00,79.0,69.2,30.09,SW,225,5.4,5.4,72,0.00,,---,0.00,VWS V14.01,2013-08-22 16:41:00,
2013-08-22 12:46:00,80.1,70.2,30.09,South,180,4.9,4.9,72,0.00,,---,0.00,VWS V14.01,2013-08-22 16:46:00,
2013-08-22 12:51:00,80.8,69.7,30.09,SW,225,3.1,3.1,69,0.00,,---,0.00,VWS V14.01,2013-08-22 16:51:00,
2013-08-22 12:56:00,80.6,68.6,30.09,NNE,22,2.2,2.2,67,0.00,,---,0.00,VWS V14.01,2013-08-22 16:56:00,
2013-08-22 13:01:00,80.2,68.3,30.09,SW,225,2.7,2.7,67,0.00,,---,0.00,VWS V14.01,2013-08-22 17:01:00,
2013-08-22 13:06:00,80.2,68.7,30.09,NW,315,2.7,5.8,68,0.00,,---,0.00,VWS V14.01,2013-08-22 17:06:00,
2013-08-22 13:11:00,80.1,69.4,30.09,SE,135,3.6,3.6,70,0.00,,---,0.00,VWS V14.01,2013-08-22 17:11:00,
2013-08-22 13:16:00,80.6,69.9,30.09,WSW,248,3.6,4.0,70,0.00,,---,0.00,VWS V14.01,2013-08-22 17:16:00,
2013-08-22 13:21:00,79.3,68.3,30.09,NW,315,2.2,5.4,69,0.00,,---,0.00,VWS V14.01,2013-08-22 17:21:00,
2013-08-22 13:26:00,79.3,69.9,30.09,West,270,2.7,2.7,73,0.00,,---,0.00,VWS V14.01,2013-08-22 17:26:00,
2013-08-22 13:31:00,79.9,70.9,30.09,West,270,3.1,3.1,74,0.00,,---,0.00,VWS V14.01,2013-08-22 17:31:00,
2013-08-22 13:36:00,81.0,71.1,30.09,WNW,292,2.7,2.7,72,0.00,,---,0.00,VWS V14.01,2013-08-22 17:36:00,
2013-08-22 13:41:00,81.3,69.8,30.09,South,180,3.1,4.0,68,0.00,,---,0.00,VWS V14.01,2013-08-22 17:41:00,
2013-08-22 13:46:00,81.3,69.8,30.09,North,0,4.0,4.0,68,0.00,,---,0.00,VWS V14.01,2013-08-22 17:46:00,
2013-08-22 13:51:00,81.1,69.6,30.09,SE,135,0.0,3.1,68,0.00,,---,0.00,VWS V14.01,2013-08-22 17:51:00,
2013-08-22 13:56:00,81.0,69.0,30.09,NW,315,0.0,0.0,67,0.00,,---,0.00,VWS V14.01,2013-08-22 17:56:00,
2013-08-22 14:01:00,79.7,68.2,30.09,South,180,3.6,3.6,68,0.00,,---,0.00,VWS V14.01,2013-08-22 18:01:00,
2013-08-22 14:06:00,79.9,69.2,30.09,NE,45,3.1,7.2,70,0.00,,---,0.00,VWS V14.01,2013-08-22 18:06:00,
2013-08-22 14:11:00,79.7,69.1,30.06,NE,45,3.6,3.6,70,0.00,,---,0.00,VWS V14.01,2013-08-22 18:11:00,
2013-08-22 14:16:00,79.5,68.9,30.06,SE,135,3.1,4.0,70,0.00,,---,0.00,VWS V14.01,2013-08-22 18:16:00,
2013-08-22 14:21:00,79.3,67.4,30.06,NW,315,7.2,8.3,67,0.00,,---,0.00,VWS V14.01,2013-08-22 18:21:00,
2013-08-22 14:26:00,79.9,68.8,30.09,SE,135,4.9,5.8,69,0.00,,---,0.00,VWS V14.01,2013-08-22 18:26:00,
2013-08-22 14:31:00,79.3,68.3,30.09,West,270,5.4,5.4,69,0.00,,---,0.00,VWS V14.01,2013-08-22 18:31:00,
2013-08-22 14:36:00,79.9,69.6,30.09,North,0,0.0,0.0,71,0.00,,---,0.00,VWS V14.01,2013-08-22 18:36:00,
2013-08-22 14:41:00,78.8,67.8,30.06,SW,225,4.0,4.0,69,0.00,,---,0.00,VWS V14.01,2013-08-22 18:41:00,
2013-08-22 14:46:00,79.5,68.5,30.06,WSW,248,3.1,3.1,69,0.00,,---,0.00,VWS V14.01,2013-08-22 18:46:00,
2013-08-22 14:51:00,78.6,67.6,30.06,West,270,2.2,8.1,69,0.00,,---,0.00,VWS V14.01,2013-08-22 18:51:00,
2013-08-22 14:56:00,79.7,69.9,30.09,North,0,3.6,6.3,72,0.00,,---,0.00,VWS V14.01,2013-08-22 18:56:00,
2013-08-22 15:01:00,78.4,69.5,30.09,SW,225,4.0,6.3,74,0.00,,---,0.00,VWS V14.01,2013-08-22 19:01:00,
2013-08-22 15:06:00,78.6,69.7,30.09,South,180,0.0,3.1,74,0.00,,---,0.00,VWS V14.01,2013-08-22 19:06:00,
2013-08-22 15:11:00,77.7,69.2,30.09,West,270,3.1,3.1,75,0.00,,---,0.00,VWS V14.01,2013-08-22 19:11:00,
2013-08-22 15:16:00,78.1,69.9,30.09,North,0,3.6,4.9,76,0.00,,---,0.00,VWS V14.01,2013-08-22 19:16:00,
2013-08-22 15:21:00,78.4,69.5,30.09,West,270,6.3,6.3,74,0.00,,---,0.00,VWS V14.01,2013-08-22 19:21:00,
2013-08-22 15:26:00,78.6,69.2,30.09,SSE,158,5.4,7.6,73,0.00,,---,0.00,VWS V14.01,2013-08-22 19:26:00,
2013-08-22 15:31:00,79.0,68.8,30.09,SE,135,3.6,4.0,71,0.00,,---,0.00,VWS V14.01,2013-08-22 19:31:00,
2013-08-22 15:36:00,79.0,68.8,30.09,North,0,4.9,4.9,71,0.00,,---,0.00,VWS V14.01,2013-08-22 19:36:00,
2013-08-22 15:41:00,78.3,68.5,30.09,South,180,4.9,4.9,72,0.00,,---,0.00,VWS V14.01,2013-08-22 19:41:00,
2013-08-22 15:46:00,77.9,68.9,30.09,NE,45,4.0,4.0,74,0.00,,---,0.00,VWS V14.01,2013-08-22 19:46:00,
2013-08-22 15:51:00,78.1,69.5,30.09,West,270,3.1,5.4,75,0.00,,---,0.00,VWS V14.01,2013-08-22 19:51:00,
2013-08-22 15:56:00,78.3,69.7,30.09,West,270,3.6,4.0,75,0.00,,---,0.00,VWS V14.01,2013-08-22 19:56:00,
2013-08-22 16:01:00,78.4,69.5,30.09,SSW,202,4.0,5.4,74,0.00,,---,0.00,VWS V14.01,2013-08-22 20:01:00,
2013-08-22 16:06:00,78.6,69.7,30.09,East,90,0.0,5.8,74,0.00,,---,0.00,VWS V14.01,2013-08-22 20:06:00,
2013-08-22 16:11:00,78.8,69.0,30.09,SW,225,4.9,4.9,72,0.00,,---,0.00,VWS V14.01,2013-08-22 20:11:00,
2013-08-22 16:16:00,78.3,68.5,30.09,North,0,3.1,5.4,72,0.00,,---,0.00,VWS V14.01,2013-08-22 20:16:00,
2013-08-22 16:21:00,78.6,68.8,30.09,NNW,338,2.7,3.6,72,0.00,,---,0.00,VWS V14.01,2013-08-22 20:21:00,
2013-08-22 16:26:00,78.3,68.1,30.09,South,180,4.9,6.7,71,0.00,,---,0.00,VWS V14.01,2013-08-22 20:26:00,
2013-08-22 16:31:00,77.9,68.9,30.09,SSW,202,3.1,4.0,74,0.00,,---,0.00,VWS V14.01,2013-08-22 20:31:00,
2013-08-22 16:36:00,77.4,68.8,30.09,NE,45,5.8,5.8,75,0.00,,---,0.00,VWS V14.01,2013-08-22 20:36:00,
2013-08-22 16:41:00,77.4,68.8,30.09,North,0,3.1,5.4,75,0.00,,---,0.00,VWS V14.01,2013-08-22 20:41:00,
2013-08-22 16:46:00,77.7,69.2,30.09,North,0,2.7,3.6,75,0.00,,---,0.00,VWS V14.01,2013-08-22 20:46:00,
2013-08-22 16:51:00,77.4,68.0,30.09,NW,315,2.7,2.7,73,0.00,,---,0.00,VWS V14.01,2013-08-22 20:51:00,
2013-08-22 16:56:00,77.5,68.6,30.06,North,0,2.7,2.7,74,0.00,,---,0.00,VWS V14.01,2013-08-22 20:56:00,
2013-08-22 17:01:00,77.4,68.8,30.06,NNW,338,0.0,4.9,75,0.00,,---,0.00,VWS V14.01,2013-08-22 21:01:00,
2013-08-22 17:06:00,77.4,68.8,30.06,SE,135,2.7,2.7,75,0.00,,---,0.00,VWS V14.01,2013-08-22 21:06:00,
2013-08-22 17:11:00,76.8,67.9,30.09,SW,225,3.6,4.9,74,0.00,,---,0.00,VWS V14.01,2013-08-22 21:11:00,
2013-08-22 17:16:00,76.3,67.8,30.09,SW,225,5.8,5.8,75,0.00,,---,0.00,VWS V14.01,2013-08-22 21:16:00,
2013-08-22 17:21:00,76.3,68.2,30.09,West,270,0.0,0.0,76,0.00,,---,0.00,VWS V14.01,2013-08-22 21:21:00,
2013-08-22 17:26:00,76.1,67.6,30.06,SW,225,5.8,5.8,75,0.00,,---,0.00,VWS V14.01,2013-08-22 21:26:00,
2013-08-22 17:31:00,75.9,67.0,30.06,SE,135,0.0,0.0,74,0.00,,---,0.00,VWS V14.01,2013-08-22 21:31:00,
2013-08-22 17:36:00,75.7,66.9,30.06,NNW,338,0.0,0.0,74,0.00,,---,0.00,VWS V14.01,2013-08-22 21:36:00,
2013-08-22 17:41:00,75.7,67.6,30.06,West,270,0.0,0.0,76,0.00,,---,0.00,VWS V14.01,2013-08-22 21:41:00,
2013-08-22 17:46:00,75.7,67.6,30.06,SW,225,0.0,2.7,76,0.00,,---,0.00,VWS V14.01,2013-08-22 21:46:00,
2013-08-22 17:51:00,75.7,67.6,30.06,South,180,2.7,4.9,76,0.00,,---,0.00,VWS V14.01,2013-08-22 21:51:00,
2013-08-22 17:56:00,75.9,67.0,30.06,South,180,3.1,3.1,74,0.00,,---,0.00,VWS V14.01,2013-08-22 21:56:00,
2013-08-22 18:01:00,75.9,66.7,30.06,SE,135,0.0,2.7,73,0.00,,---,0.00,VWS V14.01,2013-08-22 22:01:00,
2013-08-22 18:06:00,75.7,66.5,30.06,NW,315,0.0,2.2,73,0.00,,---,0.00,VWS V14.01,2013-08-22 22:06:00,
2013-08-22 18:11:00,75.7,66.1,30.06,NW,315,0.0,0.0,72,0.00,,---,0.00,VWS V14.01,2013-08-22 22:11:00,
2013-08-22 18:16:00,75.7,66.1,30.06,SW,225,0.0,0.0,72,0.00,,---,0.00,VWS V14.01,2013-08-22 22:16:00,
2013-08-22 18:21:00,75.7,66.1,30.06,SW,225,0.0,0.0,72,0.00,,---,0.00,VWS V14.01,2013-08-22 22:21:00,
2013-08-22 18:26:00,75.7,65.3,30.06,South,180,0.0,0.0,70,0.00,,---,0.00,VWS V14.01,2013-08-22 22:26:00,
2013-08-22 18:31:00,75.9,65.4,30.06,SW,225,0.0,0.0,70,0.00,,---,0.00,VWS V14.01,2013-08-22 22:31:00,
2013-08-22 18:36:00,75.9,65.0,30.06,SSW,202,0.0,0.0,69,0.00,,---,0.00,VWS V14.01,2013-08-22 22:36:00,
2013-08-22 18:41:00,75.7,64.0,30.06,North,0,2.2,2.2,67,0.00,,---,0.00,VWS V14.01,2013-08-22 22:41:00,
2013-08-22 18:46:00,75.9,64.2,30.06,NW,315,0.0,0.0,67,0.00,,---,0.00,VWS V14.01,2013-08-22 22:46:00,
2013-08-22 18:51:00,75.9,63.8,30.06,South,180,3.1,3.1,66,0.00,,---,0.00,VWS V14.01,2013-08-22 22:51:00,
2013-08-22 18:56:00,75.7,63.6,30.06,SW,225,0.0,0.0,66,0.00,,---,0.00,VWS V14.01,2013-08-22 22:56:00,
2013-08-22 19:01:00,75.6,63.4,30.06,South,180,0.0,0.0,66,0.00,,---,0.00,VWS V14.01,2013-08-22 23:01:00,
2013-08-22 19:06:00,75.2,63.5,30.06,SE,135,0.0,0.0,67,0.00,,---,0.00,VWS V14.01,2013-08-22 23:06:00,
2013-08-22 19:11:00,74.8,63.6,30.09,West,270,4.0,4.0,68,0.00,,---,0.00,VWS V14.01,2013-08-22 23:11:00,
2013-08-22 19:16:00,74.5,63.7,30.09,NE,45,2.7,2.7,69,0.00,,---,0.00,VWS V14.01,2013-08-22 23:16:00,
2013-08-22 19:21:00,74.1,64.1,30.09,NW,315,0.0,0.0,71,0.00,,---,0.00,VWS V14.01,2013-08-22 23:21:00,
2013-08-22 19:26:00,73.8,65.0,30.06,SW,225,2.2,4.0,74,0.00,,---,0.00,VWS V14.01,2013-08-22 23:26:00,
2013-08-22 19:31:00,73.6,66.3,30.06,SSW,202,0.0,0.0,78,0.00,,---,0.00,VWS V14.01,2013-08-22 23:31:00,
2013-08-22 19:36:00,73.4,66.9,30.06,SE,135,0.0,0.0,80,0.00,,---,0.00,VWS V14.01,2013-08-22 23:36:00,
2013-08-22 19:41:00,73.0,67.2,30.06,NW,315,0.0,0.0,82,0.00,,---,0.00,VWS V14.01,2013-08-22 23:41:00,
2013-08-22 19:46:00,73.0,67.9,30.06,SW,225,0.0,0.0,84,0.00,,---,0.00,VWS V14.01,2013-08-22 23:46:00,
2013-08-22 19:51:00,72.7,67.9,30.06,SW,225,0.0,0.0,85,0.00,,---,0.00,VWS V14.01,2013-08-22 23:51:00,
2013-08-22 19:56:00,72.5,68.4,30.06,NNW,338,0.0,4.0,87,0.00,,---,0.00,VWS V14.01,2013-08-22 23:56:00,
2013-08-22 20:01:00,72.3,68.2,30.06,SE,135,2.7,3.1,87,0.00,,---,0.00,VWS V14.01,2013-08-23 00:01:00,
2013-08-22 20:06:00,72.1,68.4,30.06,SW,225,0.0,0.0,88,0.00,,---,0.00,VWS V14.01,2013-08-23 00:06:00,
2013-08-22 20:11:00,72.0,68.6,30.06,SW,225,0.0,3.6,89,0.00,,---,0.00,VWS V14.01,2013-08-23 00:11:00,
2013-08-22 20:16:00,71.8,68.4,30.06,SW,225,0.0,0.0,89,0.00,,---,0.00,VWS V14.01,2013-08-23 00:16:00,
2013-08-22 20:21:00,71.6,68.2,30.06,WNW,292,7.2,7.2,89,0.00,,---,0.00,VWS V14.01,2013-08-23 00:21:00,
2013-08-22 20:26:00,71.4,68.3,30.06,SE,135,0.0,0.0,90,0.00,,---,0.00,VWS V14.01,2013-08-23 00:26:00,
2013-08-22 20:31:00,71.2,68.2,30.06,SW,225,0.0,0.0,90,0.00,,---,0.00,VWS V14.01,2013-08-23 00:31:00,
2013-08-22 20:36:00,71.1,68.0,30.06,WNW,292,0.0,0.0,90,0.00,,---,0.00,VWS V14.01,2013-08-23 00:36:00,
2013-08-22 20:41:00,71.1,68.0,30.09,South,180,0.0,0.0,90,0.00,,---,0.00,VWS V14.01,2013-08-23 00:41:00,
2013-08-22 20:46:00,70.7,67.6,30.09,SW,225,0.0,0.0,90,0.00,,---,0.00,VWS V14.01,2013-08-23 00:46:00,
2013-08-22 20:51:00,70.7,67.6,30.09,NW,315,0.0,0.0,90,0.00,,---,0.00,VWS V14.01,2013-08-23 00:51:00,
2013-08-22 20:56:00,70.7,67.6,30.06,SW,225,0.0,0.0,90,0.00,,---,0.00,VWS V14.01,2013-08-23 00:56:00,
2013-08-22 21:01:00,70.5,67.4,30.06,SE,135,0.0,0.0,90,0.00,,---,0.00,VWS V14.01,2013-08-23 01:01:00,
2013-08-22 21:06:00,70.3,67.3,30.06,SW,225,0.0,0.0,90,0.00,,---,0.00,VWS V14.01,2013-08-23 01:06:00,
2013-08-22 21:11:00,70.3,67.3,30.06,West,270,0.0,0.0,90,0.00,,---,0.00,VWS V14.01,2013-08-23 01:11:00,
2013-08-22 21:16:00,70.0,66.9,30.06,South,180,0.0,0.0,90,0.00,,---,0.00,VWS V14.01,2013-08-23 01:16:00,
2013-08-22 21:21:00,70.0,66.9,30.06,SSW,202,0.0,0.0,90,0.00,,---,0.00,VWS V14.01,2013-08-23 01:21:00,
2013-08-22 21:26:00,69.6,66.6,30.06,SSW,202,0.0,0.0,90,0.00,,---,0.00,VWS V14.01,2013-08-23 01:26:00,
2013-08-22 21:31:00,69.8,66.7,30.06,SW,225,0.0,0.0,90,0.00,,---,0.00,VWS V14.01,2013-08-23 01:31:00,
2013-08-22 21:36:00,69.8,66.7,30.06,SW,225,0.0,0.0,90,0.00,,---,0.00,VWS V14.01,2013-08-23 01:36:00,
2013-08-22 21:41:00,69.6,66.6,30.09,SW,225,0.0,0.0,90,0.00,,---,0.00,VWS V14.01,2013-08-23 01:41:00,
2013-08-22 21:46:00,69.8,66.7,30.09,SE,135,0.0,0.0,90,0.00,,---,0.00,VWS V14.01,2013-08-23 01:46:00,
2013-08-22 21:51:00,69.8,66.7,30.09,South,180,0.0,0.0,90,0.00,,---,0.00,VWS V14.01,2013-08-23 01:51:00,
2013-08-22 21:56:00,69.6,66.6,30.09,South,180,0.0,0.0,90,0.00,,---,0.00,VWS V14.01,2013-08-23 01:56:00,
2013-08-22 22:01:00,69.4,66.4,30.09,South,180,0.0,0.0,90,0.00,,---,0.00,VWS V14.01,2013-08-23 02:01:00,
2013-08-22 22:06:00,69.6,66.6,30.09,SW,225,0.0,0.0,90,0.00,,---,0.00,VWS V14.01,2013-08-23 02:06:00,
2013-08-22 22:11:00,69.6,66.6,30.09,South,180,0.0,0.0,90,0.00,,---,0.00,VWS V14.01,2013-08-23 02:11:00,
2013-08-22 22:16:00,69.6,66.6,30.09,SSW,202,0.0,0.0,90,0.00,,---,0.00,VWS V14.01,2013-08-23 02:16:00,
2013-08-22 22:21:00,69.8,66.7,30.09,South,180,0.0,0.0,90,0.00,,---,0.00,VWS V14.01,2013-08-23 02:21:00,
2013-08-22 22:26:00,69.6,66.6,30.09,South,180,0.0,0.0,90,0.00,,---,0.00,VWS V14.01,2013-08-23 02:26:00,
2013-08-22 22:31:00,69.6,66.6,30.09,South,180,0.0,0.0,90,0.00,,---,0.00,VWS V14.01,2013-08-23 02:31:00,
2013-08-22 22:36:00,69.6,66.6,30.09,SW,225,0.0,0.0,90,0.00,,---,0.00,VWS V14.01,2013-08-23 02:36:00,
2013-08-22 22:41:00,69.6,66.6,30.09,South,180,0.0,0.0,90,0.00,,---,0.00,VWS V14.01,2013-08-23 02:41:00,
2013-08-22 22:46:00,69.6,66.6,30.09,SW,225,0.0,0.0,90,0.00,,---,0.00,VWS V14.01,2013-08-23 02:46:00,
2013-08-22 22:51:00,69.6,66.6,30.09,SW,225,0.0,0.0,90,0.00,,---,0.00,VWS V14.01,2013-08-23 02:51:00,
2013-08-22 22:56:00,69.6,66.6,30.09,SSW,202,0.0,0.0,90,0.00,,---,0.00,VWS V14.01,2013-08-23 02:56:00,
2013-08-22 23:01:00,69.6,66.6,30.09,South,180,0.0,0.0,90,0.00,,---,0.00,VWS V14.01,2013-08-23 03:01:00,
2013-08-22 23:06:00,69.6,66.6,30.09,SW,225,0.0,0.0,90,0.00,,---,0.00,VWS V14.01,2013-08-23 03:06:00,
2013-08-22 23:11:00,69.6,66.6,30.09,SW,225,0.0,0.0,90,0.00,,---,0.00,VWS V14.01,2013-08-23 03:11:00,
2013-08-22 23:16:00,69.6,66.6,30.09,SW,225,0.0,0.0,90,0.00,,---,0.00,VWS V14.01,2013-08-23 03:16:00,
2013-08-22 23:21:00,69.4,66.4,30.09,SW,225,0.0,0.0,90,0.00,,---,0.00,VWS V14.01,2013-08-23 03:21:00,
2013-08-22 23:26:00,69.4,66.7,30.09,SW,225,0.0,0.0,91,0.00,,---,0.00,VWS V14.01,2013-08-23 03:26:00,
2013-08-22 23:31:00,69.4,66.7,30.09,South,180,0.0,0.0,91,0.00,,---,0.00,VWS V14.01,2013-08-23 03:31:00,
2013-08-22 23:36:00,69.3,66.5,30.09,SE,135,0.0,0.0,91,0.00,,---,0.00,VWS V14.01,2013-08-23 03:36:00,
2013-08-22 23:41:00,69.3,66.5,30.09,South,180,0.0,0.0,91,0.00,,---,0.00,VWS V14.01,2013-08-23 03:41:00,
2013-08-22 23:46:00,69.3,66.5,30.09,WNW,292,0.0,0.0,91,0.00,,---,0.00,VWS V14.01,2013-08-23 03:46:00,
2013-08-22 23:51:00,69.1,66.3,30.09,WNW,292,0.0,0.0,91,0.00,,---,0.00,VWS V14.01,2013-08-23 03:51:00,
2013-08-22 23:56:00,69.1,66.3,30.09,SW,225,0.0,0.0,91,0.00,,---,0.00,VWS V14.01,2013-08-23 03:56:00,